Temp
81 80 80 80 80 78 77 77 77 77 76 76 77 77 77 74 73 71 70 71 73 77 78 78 78 78 78 78 80 79 80 81 81 83 82 82 81 77 74 76 76 77 77 78 78 78 78 78 78 78 78 77 77 77 77 77 76 76 75 74 74 73 73 72 72 72 72 72 72 73 73 73 74 74
80 80 81 80 79 79 77 78 79 76 76 75 76 76 76 74 74 71 71 71 73 75 77 79 79 77 78 81 82 81 82 80 81 83 82 82 83 75 73 75 75 75 76 76 77 78 78 78 77 77 76 76 76 76 76 76 76 76 75 74 73 72 72 71 72 72 72 72 72 72 73 73 73 73
80 79 80 79 78 77 77 77 78 76 77 75 74 75 75 74 75 73 71 70 73 75 77 79 80 79 80 82 82 84 83 82 81 82 82 81 77 75 77 74 74 74 74 74 75 75 76 77 76 75 75 75 75 75 75 75 75 75 74 74 72 71 70 70 71 71 71 72 72 72 72 72 72 72
80 79 79 78 78 77 77 77 77 77 76 75 74 75 74 74 73 73 72 71 72 74 76 76 80 81 81 81 81 81 82 83 78 81 81 80 77 80 80 74 73 73 73 73 73 73 74 74 74 75 75 75 75 75 74 74 74 73 73 72 70 69 69 69 70 70 70 70 71 71 71 71 71 71
80 79 79 79 79 78 78 77 77 77 76 76 75 75 74 74 73 73 72 71 72 75 75 74 78 80 79 81 79 80 81 81 81 80 81 80 81 80 80 79 73 72 72 72 72 71 72 72 73 74 74 74 75 74 73 72 71 71 70 68 67 67 68 68 69 69 69 69 69 70 70 70 71 71
80 79 78 79 79 77 77 78 79 79 79 77 76 74 74 74 74 74 75 73 72 73 75 76 78 78 79 79 79 79 80 81 80 81 82 82 81 80 79 79 79 72 72 71 70 70 70 70 71 72 74 74 73 73 71 69 68 68 66 65 65 65 66 67 68 68 68 69 69 69 69 70 70 70
78 78 78 80 80 79 78 77 78 78 76 76 75 76 77 76 75 75 75 74 73 73 74 75 76 77 78 78 79 79 79 79 78 79 81 81 82 80 79 79 80 71 71 70 70 69 69 69 70 71 71 73 72 70 67 65 64 64 63 63 63 63 63 64 66 66 66 67 68 68 68 68 69 70
77 78 77 79 79 79 77 77 76 75 75 75 75 75 75 75 75 75 74 74 74 73 73 75 76 77 77 79 79 79 79 80 79 79 79 80 81 80 80 79 79 73 70 70 69 69 68 68 68 68 68 69 67 64 63 62 62 62 61 62 62 62 61 61 63 64 63 64 64 65 66 67 67 68
78 77 77 78 78 77 76 76 75 75 74 74 73 74 74 74 75 75 75 74 73 72 72 73 75 75 75 76 76 77 77 78 78 77 77 78 78 77 79 79 77 71 69 70 68 68 68 67 66 66 65 65 64 63 63 62 62 61 60 61 61 61 61 60 61 61 61 61 62 62 63 65 65 65
79 78 77 77 77 77 76 76 75 75 75 74 74 73 73 73 74 73 74 73 73 73 73 73 74 75 75 76 75 75 76 76 76 77 77 77 77 76 77 78 77 77 76 74 71 68 68 66 65 66 65 64 63 63 63 62 61 60 59 58 59 60 59 60 60 60 60 60 60 60 62 63 64 65
78 78 78 77 77 76 76 77 77 77 76 75 75 74 75 75 74 73 72 73 73 72 72 73 73 73 73 73 74 75 75 74 73 74 74 76 75 74 75 76 77 77 75 72 70 72 71 69 68 64 63 63 63 63 63 63 62 61 59 58 58 58 58 59 59 59 59 59 58 58 58 60 63 64
78 78 78 79 77 77 77 77 77 76 75 75 75 75 75 74 73 73 73 72 72 71 71 71 72 71 71 72 75 75 73 73 73 73 73 73 74 75 74 74 75 75 74 74 74 71 70 69 66 64 64 64 64 65 65 65 65 64 61 59 60 60 59 58 59 59 58 58 57 57 56 57 59 61
77 77 77 78 77 77 78 79 79 78 77 76 75 75 74 74 73 72 72 72 71 71 71 72 72 71 71 72 71 73 72 72 73 73 73 72 73 73 74 75 75 75 74 74 74 71 71 69 69 69 68 67 67 65 64 66 67 66 61 60 61 60 59 59 59 59 58 58 58 57 57 57 58 59
76 76 76 76 78 79 80 81 81 80 80 79 79 77 75 74 73 72 72 72 72 71 70 71 72 72 72 74 73 72 73 73 72 71 72 73 73 74 74 72 71 73 74 73 72 72 72 71 70 69 70 69 70 67 66 66 67 66 62 61 61 61 60 59 59 59 58 58 58 58 57 57 58 57
76 76 76 75 76 78 79 79 80 81 82 81 81 80 79 77 74 73 72 72 72 71 71 72 72 72 71 73 74 74 73 72 72 71 70 71 71 71 70 70 72 70 69 72 72 70 73 72 71 71 71 71 71 69 67 66 65 64 62 61 61 61 61 61 61 60 59 58 58 58 58 58 58 57
76 76 75 76 76 76 76 76 76 78 80 80 80 79 79 79 79 78 76 74 73 72 71 71 72 72 72 72 73 73 73 72 71 70 72 71 71 70 70 70 70 69 69 70 71 69 71 72 72 70 71 73 73 73 66 64 63 63 62 62 61 61 61 61 61 61 60 60 59 60 59 59 59 58
75 74 74 74 75 76 77 78 79 78 78 78 80 80 80 80 79 72 71 75 76 74 72 72 72 72 72 71 71 72 71 70 70 70 71 70 70 70 70 70 67 67 68 69 70 68 69 70 70 68 68 70 71 70 66 64 64 63 62 61 61 61 61 61 61 60 60 59 59 58 58 58 58 57
71 70 71 72 74 75 75 76 75 75 75 76 75 75 75 76 77 75 73 73 74 75 72 70 70 69 70 68 68 69 69 69 68 68 68 70 70 70 70 68 67 69 71 70 71 68 68 70 68 65 66 68 66 65 62 62 62 62 62 61 61 60 60 60 61 60 60 60 59 58 58 57 57 57
71 71 71 72 72 72 72 74 75 75 75 74 74 74 74 72 70 68 65 65 67 69 69 69 67 66 66 65 66 66 66 66 68 70 71 72 71 70 69 69 70 69 71 69 71 63 66 69 67 65 66 67 66 67 62 61 61 61 61 61 61 60 60 60 60 60 60 59 59 58 57 57 56 56
72 71 71 71 71 71 70 72 71 72 75 74 74 72 71 70 68 66 64 64 66 67 66 66 66 65 64 65 66 66 67 68 69 72 73 72 70 69 68 66 69 69 70 69 68 64 64 67 67 65 68 68 65 66 66 63 62 61 61 61 60 60 59 59 58 58 59 59 59 58 57 56 55 55
72 72 71 71 71 71 70 70 63 65 74 73 72 70 70 70 67 64 64 62 62 62 61 61 62 62 63 64 63 62 63 66 69 70 69 66 68 69 67 66 66 65 68 68 67 66 63 64 64 65 65 65 65 65 65 66 62 60 60 60 59 59 59 58 58 58 58 58 58 58 57 55 55 55
72 73 75 75 72 71 70 63 61 64 73 71 70 70 70 69 64 64 65 67 65 64 64 64 64 65 66 66 66 65 65 65 67 65 62 65 69 68 68 64 64 65 66 65 67 65 63 64 63 64 65 66 67 67 67 66 64 62 61 60 59 59 59 58 58 58 57 57 56 56 55 54 56 64
71 70 71 73 73 71 67 59 60 63 73 72 71 71 70 67 64 63 67 66 66 66 67 67 67 67 67 67 67 68 68 68 67 65 64 64 64 63 64 64 64 62 62 65 66 61 61 62 62 61 64 62 65 66 65 64 64 65 65 65 64 60 60 59 58 57 56 56 56 56 54 54 58 67
69 68 69 67 63 61 59 57 57 59 64 72 72 72 71 69 64 65 66 67 65 64 63 63 64 64 64 65 66 66 67 66 66 63 63 62 63 62 62 63 63 60 60 64 66 62 62 63 62 63 63 61 60 64 65 64 64 64 64 63 63 62 62 62 61 58 56 56 55 55 55 54 56 66
69 68 67 67 63 57 57 56 56 57 59 66 72 71 71 70 66 67 66 66 66 63 63 63 62 62 62 62 63 63 64 64 64 63 64 65 64 64 63 63 62 61 61 64 66 64 60 62 62 64 63 63 62 63 64 63 63 63 64 63 61 62 62 62 62 62 58 57 55 54 54 54 55 60
68 67 66 67 63 57 56 55 54 55 58 62 71 69 60 60 63 68 67 64 63 62 62 61 61 60 60 60 62 62 62 63 65 65 65 65 66 65 64 63 61 59 60 65 66 63 62 60 62 62 61 61 62 63 61 62 63 63 64 64 63 61 62 61 62 62 62 62 62 58 57 55 56 55
65 66 66 67 62 54 52 53 54 56 59 64 61 55 58 60 63 67 64 64 63 61 61 60 59 60 61 61 61 62 63 64 64 64 64 64 66 66 66 65 63 62 62 63 65 64 63 62 63 61 59 60 59 61 59 59 60 62 64 64 64 64 64 64 62 63 64 63 63 57 57 58 57 57
65 64 64 61 53 51 49 52 54 56 61 60 54 56 59 63 67 66 64 62 62 62 61 60 60 60 62 63 63 63 64 64 63 63 64 64 64 63 63 64 65 65 63 63 62 61 62 61 61 61 61 60 60 59 58 60 60 60 60 63 64 64 64 63 62 62 63 63 63 63 64 64 65 65
63 58 53 51 52 53 53 55 58 59 59 57 57 59 63 69 65 64 63 62 61 60 60 60 62 63 63 63 63 64 65 66 66 65 65 65 64 64 63 62 62 62 65 64 62 61 61 61 61 61 60 60 59 58 59 57 58 58 60 59 59 62 62 62 61 60 60 60 60 60 60 60 60 62
57 55 54 55 57 60 62 66 66 66 65 62 63 64 67 66 65 64 63 62 61 60 60 62 62 62 64 64 65 66 65 64 63 64 62 62 62 62 62 60 60 62 63 64 63 61 61 60 59 59 58 58 58 56 56 56 55 57 58 57 58 61 61 60 60 60 58 58 59 60 61 62 62 62
62 63 64 63 61 61 63 66 67 67 67 68 68 68 68 67 65 64 63 63 62 62 63 63 63 64 65 67 66 64 64 63 63 64 63 62 62 61 60 59 58 59 62 64 64 64 62 61 61 61 58 57 58 57 56 57 54 55 56 57 57 53 57 59 59 59 59 59 60 61 62 62 62 62
67 66 65 64 68 68 68 68 68 68 68 68 68 68 67 67 68 68 68 68 67 66 66 65 65 65 65 64 64 64 63 62 62 64 63 62 61 62 61 59 57 59 59 61 62 63 63 62 61 60 59 58 56 57 58 57 56 56 56 58 58 59 59 58 58 59 58 58 59 59 59 60 60 61
67 66 66 66 66 67 66 66 67 67 67 66 67 68 67 68 68 68 67 66 65 65 65 65 65 64 64 63 64 63 62 62 61 62 61 61 60 59 60 58 58 57 57 58 59 60 61 61 62 61 60 59 59 58 57 55 56 57 56 56 56 56 57 59 58 57 57 56 56 57 57 58 59 59
65 65 65 65 65 65 66 66 66 67 67 67 67 67 66 67 67 67 66 65 65 65 65 64 64 63 63 62 62 61 61 60 61 61 61 60 60 58 58 57 57 58 57 57 57 58 59 59 59 59 60 60 60 59 58 56 55 56 56 56 55 54 56 56 57 56 55 54 53 54 55 57 59 60
64 64 65 64 65 65 66 66 66 66 66 66 66 65 66 67 66 65 65 64 64 64 64 63 63 63 62 61 61 61 60 60 60 60 61 61 60 59 58 57 56 56 56 56 56 57 57 56 57 56 56 56 57 58 60 58 56 54 55 55 54 53 53 55 55 55 55 55 55 53 55 56 57 60
63 65 65 64 65 66 66 66 67 66 66 66 66 65 65 64 64 64 63 62 64 63 63 62 62 62 61 61 61 61 60 60 59 59 59 59 59 59 59 57 57 56 56 56 56 57 57 56 56 54 53 52 52 51 52 58 57 55 53 52 54 53 54 55 55 56 56 55 55 54 53 53 55 58
62 64 64 65 65 66 66 66 66 66 66 65 65 65 65 64 63 63 61 62 64 63 63 63 62 62 62 62 61 61 61 60 59 59 59 58 58 58 57 57 56 55 55 54 55 55 56 55 55 53 52 51 50 49 50 55 55 56 56 53 53 55 54 54 54 54 55 55 54 55 53 53 54 57
62 63 64 64 65 66 66 66 66 66 65 65 65 65 65 63 62 61 63 64 63 64 63 64 63 62 61 61 60 59 59 59 59 58 58 58 57 56 56 55 54 54 53 53 54 54 56 55 54 54 53 50 49 49 49 53 55 56 55 54 53 54 55 53 53 53 53 56 55 55 55 54 55 56
63 64 64 65 65 65 66 65 66 66 65 65 65 64 63 62 62 61 62 62 62 61 61 61 60 60 59 59 59 59 58 58 58 58 57 57 57 56 56 56 54 54 55 54 54 55 55 55 55 54 53 51 49 50 51 50 51 55 56 53 54 54 54 54 53 54 54 54 54 56 56 57 57 56
64 63 63 63 62 63 64 65 65 65 65 65 64 64 63 62 62 62 62 61 61 61 61 61 60 59 60 60 59 59 59 59 59 59 58 58 58 58 57 56 55 54 54 54 54 54 55 54 54 54 54 54 54 55 55 54 55 57 58 57 52 53 54 54 53 52 53 54 54 53 53 55 54 56
63 62 62 62 62 63 63 63 64 64 64 63 63 62 62 62 62 63 62 62 61 60 61 60 59 60 59 59 59 60 59 58 59 59 59 58 57 57 57 56 55 55 54 53 53 54 54 54 55 55 55 56 56 57 55 53 51 52 54 56 55 54 53 54 54 53 52 54 53 53 51 51 51 52
62 62 61 62 62 62 62 62 63 63 63 63 63 62 61 62 62 62 62 61 61 60 60 60 59 59 58 58 59 59 59 58 58 58 58 58 58 57 56 56 55 54 54 53 53 54 55 55 55 56 56 56 55 52 49 50 50 51 52 55 57 55 55 54 53 53 54 54 53 51 51 51 52 50
62 62 62 62 62 62 62 62 62 62 62 62 62 62 63 63 63 62 62 61 60 60 60 59 59 58 57 58 58 59 58 57 57 57 57 57 57 56 55 55 55 55 54 54 54 55 55 55 55 55 55 54 53 52 50 51 51 52 52 53 54 56 57 55 54 53 53 53 53 53 53 51 48 45
61 62 62 61 62 61 61 61 61 62 62 62 62 62 63 62 62 61 61 61 60 59 58 57 57 57 57 57 57 57 57 57 57 57 57 57 56 56 55 55 54 54 54 54 54 54 55 55 55 54 53 52 53 51 51 51 51 52 53 53 53 54 54 56 57 55 55 55 54 52 52 53 53 53
61 61 61 61 61 62 61 61 61 61 62 62 62 62 62 62 60 60 59 59 58 58 57 57 57 57 58 58 58 58 57 57 57 57 56 56 56 55 55 55 54 54 53 53 53 53 53 53 54 54 53 53 53 52 52 52 51 52 52 52 51 53 53 54 53 52 53 54 54 53 53 53 53 53
MSLP
1019.00 1019.04 1019.04 1019.08 1019.04 1019.00 1019.00 1019.12 1019.16 1019.20 1019.32 1019.36 1019.48 1019.60 1020.08 1020.48 1021.44 1021.88 1021.68 1021.00 1020.56 1019.56 1019.24 1019.36 1018.64 1018.12 1018.08 1018.04 1017.84 1017.92 1017.92 1017.76 1017.64 1017.60 1017.60 1017.56 1017.48 1017.48 1017.56 1017.56 1017.56 1017.52 1017.52 1017.60 1017.76 1017.88 1018.00 1018.08 1018.12 1018.16 1018.12 1018.12 1018.12 1018.12 1018.16 1018.12 1018.04 1017.96 1017.92 1017.92 1017.88 1017.88 1017.88 1017.84 1017.76 1017.68 1017.56 1017.48 1017.40 1017.28 1017.20 1017.12 1017.08 1017.04
1018.92 1018.96 1018.96 1018.92 1019.00 1018.88 1019.00 1019.04 1019.04 1019.12 1019.16 1019.32 1019.40 1019.48 1019.60 1019.76 1020.64 1021.00 1021.68 1021.24 1020.08 1019.76 1019.20 1019.00 1018.88 1018.28 1018.16 1017.88 1017.80 1017.68 1017.72 1017.56 1017.52 1017.48 1017.52 1017.48 1017.32 1017.28 1017.36 1017.40 1017.48 1017.56 1017.60 1017.64 1017.76 1017.88 1018.04 1018.16 1018.16 1018.20 1018.20 1018.16 1018.20 1018.24 1018.24 1018.20 1018.16 1018.12 1018.08 1018.08 1018.08 1018.12 1018.08 1018.04 1017.96 1017.92 1017.80 1017.68 1017.60 1017.48 1017.36 1017.28 1017.24 1017.20
1018.88 1019.00 1019.08 1018.96 1019.08 1019.00 1019.08 1019.08 1019.08 1019.08 1019.16 1019.20 1019.28 1019.40 1019.48 1019.64 1019.80 1020.32 1020.80 1021.56 1019.92 1019.52 1019.56 1018.88 1018.44 1018.52 1018.24 1018.00 1017.88 1017.64 1017.52 1017.44 1017.36 1017.36 1017.36 1017.36 1017.32 1017.28 1017.24 1017.32 1017.44 1017.56 1017.64 1017.72 1017.80 1017.92 1018.08 1018.20 1018.24 1018.24 1018.24 1018.24 1018.28 1018.32 1018.32 1018.32 1018.24 1018.20 1018.20 1018.20 1018.24 1018.28 1018.28 1018.24 1018.20 1018.12 1018.08 1017.96 1017.88 1017.76 1017.64 1017.52 1017.44 1017.40
1018.92 1019.04 1019.16 1019.04 1018.96 1018.80 1018.84 1018.92 1018.92 1018.92 1018.88 1018.96 1019.12 1019.20 1019.32 1019.44 1019.60 1019.80 1020.36 1020.84 1020.48 1019.32 1019.28 1019.00 1018.68 1018.40 1018.40 1018.12 1018.20 1017.96 1017.72 1017.40 1017.36 1017.32 1017.32 1017.28 1017.36 1017.28 1017.24 1017.32 1017.40 1017.52 1017.68 1017.76 1017.84 1018.00 1018.16 1018.28 1018.24 1018.24 1018.24 1018.28 1018.32 1018.36 1018.40 1018.36 1018.32 1018.32 1018.32 1018.32 1018.36 1018.40 1018.40 1018.36 1018.32 1018.28 1018.24 1018.20 1018.12 1018.04 1017.96 1017.84 1017.76 1017.68
1018.72 1018.80 1018.88 1018.80 1018.64 1018.52 1018.72 1018.68 1018.68 1018.76 1018.80 1018.92 1019.08 1019.16 1019.32 1019.52 1019.56 1019.72 1020.12 1020.48 1020.24 1019.32 1018.72 1018.88 1018.84 1018.40 1018.32 1018.44 1018.16 1018.20 1018.00 1017.76 1017.48 1017.32 1017.24 1017.24 1017.36 1017.36 1017.32 1017.32 1017.40 1017.48 1017.60 1017.72 1017.88 1018.08 1018.24 1018.32 1018.28 1018.28 1018.28 1018.28 1018.32 1018.36 1018.44 1018.48 1018.48 1018.48 1018.48 1018.52 1018.52 1018.52 1018.48 1018.48 1018.44 1018.40 1018.32 1018.32 1018.28 1018.24 1018.16 1018.08 1018.00 1017.96
1018.64 1018.68 1018.84 1018.76 1018.60 1018.52 1018.68 1018.64 1018.76 1018.72 1018.84 1019.00 1019.16 1019.24 1019.32 1019.40 1019.40 1019.32 1019.76 1020.04 1020.20 1020.00 1019.00 1018.96 1018.48 1018.48 1018.16 1018.68 1018.04 1018.28 1018.24 1018.00 1017.68 1017.60 1017.40 1017.20 1017.24 1017.40 1017.32 1017.36 1017.44 1017.56 1017.68 1017.80 1017.96 1018.16 1018.32 1018.36 1018.36 1018.36 1018.36 1018.32 1018.36 1018.44 1018.48 1018.56 1018.60 1018.60 1018.68 1018.68 1018.68 1018.64 1018.64 1018.60 1018.56 1018.52 1018.48 1018.44 1018.40 1018.36 1018.32 1018.28 1018.20 1018.16
1018.68 1018.84 1018.84 1018.76 1018.52 1018.48 1018.68 1018.64 1018.64 1018.68 1018.84 1018.88 1019.04 1019.04 1019.04 1019.20 1019.20 1019.24 1019.28 1019.68 1020.04 1019.96 1019.56 1018.84 1018.92 1018.64 1018.40 1018.44 1018.28 1018.04 1017.96 1017.84 1017.68 1017.72 1017.56 1017.44 1017.28 1017.28 1017.32 1017.40 1017.40 1017.60 1017.72 1017.88 1018.04 1018.28 1018.48 1018.52 1018.52 1018.60 1018.60 1018.48 1018.56 1018.60 1018.68 1018.72 1018.72 1018.76 1018.84 1018.84 1018.84 1018.80 1018.84 1018.80 1018.76 1018.72 1018.68 1018.64 1018.56 1018.52 1018.48 1018.44 1018.36 1018.32
1018.60 1018.72 1018.80 1018.60 1018.52 1018.56 1018.84 1018.76 1018.76 1018.72 1018.80 1018.88 1018.88 1018.92 1018.92 1019.00 1019.12 1019.16 1019.28 1019.36 1019.64 1019.68 1019.96 1019.08 1018.96 1018.56 1018.60 1018.24 1017.96 1017.88 1017.72 1017.76 1017.72 1017.68 1017.52 1017.32 1017.40 1017.40 1017.32 1017.40 1017.48 1017.64 1017.80 1017.96 1018.24 1018.48 1018.56 1018.56 1018.52 1018.68 1018.92 1019.00 1019.00 1018.96 1018.92 1018.84 1018.84 1018.92 1018.96 1019.00 1019.00 1019.00 1019.00 1019.04 1019.04 1019.00 1018.96 1018.88 1018.84 1018.76 1018.68 1018.60 1018.52 1018.48
1018.36 1018.52 1018.60 1018.44 1018.52 1018.60 1018.84 1018.76 1018.72 1018.64 1018.80 1018.76 1018.88 1018.92 1018.96 1019.12 1019.12 1019.16 1019.20 1019.28 1019.36 1019.64 1019.76 1019.36 1018.68 1018.52 1018.48 1018.20 1018.08 1017.88 1018.08 1017.88 1017.68 1017.56 1017.64 1017.64 1017.64 1017.64 1017.48 1017.44 1017.56 1017.76 1017.92 1018.24 1018.44 1018.40 1018.32 1018.36 1018.56 1018.92 1019.12 1019.16 1019.24 1019.32 1019.24 1019.12 1019.08 1019.08 1019.16 1019.20 1019.20 1019.20 1019.16 1019.16 1019.20 1019.24 1019.20 1019.12 1019.08 1019.00 1018.92 1018.84 1018.76 1018.64
1018.12 1018.28 1018.32 1018.32 1018.40 1018.56 1018.72 1018.64 1018.56 1018.56 1018.64 1018.68 1018.80 1018.88 1018.92 1019.00 1019.12 1019.24 1019.20 1019.12 1019.24 1019.32 1019.28 1019.24 1019.12 1018.68 1018.76 1018.60 1018.32 1018.08 1017.96 1018.20 1018.24 1017.96 1017.80 1017.68 1017.68 1017.80 1017.88 1017.76 1017.68 1017.72 1017.92 1018.24 1018.32 1018.40 1018.44 1018.48 1018.68 1018.88 1019.04 1019.20 1019.28 1019.28 1019.40 1019.56 1019.52 1019.40 1019.36 1019.36 1019.36 1019.32 1019.32 1019.28 1019.32 1019.32 1019.36 1019.32 1019.28 1019.24 1019.12 1019.04 1018.96 1018.88
1017.92 1018.04 1018.12 1018.20 1018.28 1018.40 1018.40 1018.44 1018.44 1018.40 1018.52 1018.60 1018.68 1018.72 1018.88 1018.92 1019.12 1019.20 1019.24 1019.12 1019.16 1019.20 1019.28 1019.16 1019.08 1019.08 1018.76 1018.72 1018.80 1018.20 1018.00 1018.12 1018.28 1018.52 1018.40 1018.36 1018.04 1017.96 1018.00 1018.12 1017.80 1017.72 1017.96 1018.12 1018.24 1018.36 1018.44 1018.68 1018.80 1018.80 1018.88 1018.84 1018.84 1019.08 1019.44 1019.44 1019.44 1019.48 1019.52 1019.48 1019.44 1019.40 1019.40 1019.40 1019.40 1019.40 1019.44 1019.44 1019.44 1019.40 1019.36 1019.28 1019.20 1019.12
1017.76 1017.80 1017.92 1018.00 1018.04 1018.08 1018.08 1018.16 1018.16 1018.28 1018.48 1018.52 1018.64 1018.48 1018.64 1018.80 1018.92 1019.00 1019.00 1019.04 1019.08 1019.12 1019.12 1019.16 1019.12 1019.04 1019.00 1018.72 1018.36 1018.16 1018.24 1018.44 1018.44 1018.32 1018.52 1018.76 1018.52 1018.32 1018.12 1018.04 1018.12 1018.00 1018.04 1018.32 1018.40 1018.44 1018.44 1018.48 1018.60 1018.72 1018.84 1018.84 1018.92 1019.32 1019.64 1019.60 1019.44 1019.52 1019.68 1019.56 1019.48 1019.44 1019.44 1019.48 1019.48 1019.48 1019.48 1019.52 1019.56 1019.56 1019.52 1019.48 1019.40 1019.36
1017.68 1017.76 1017.84 1017.84 1017.84 1017.84 1017.84 1017.76 1017.80 1017.88 1018.04 1018.40 1018.64 1018.44 1018.52 1018.64 1018.76 1018.84 1018.96 1018.96 1019.04 1019.04 1019.04 1019.00 1018.84 1018.96 1018.92 1018.72 1018.68 1018.60 1018.64 1018.68 1018.56 1018.32 1018.36 1018.56 1018.52 1018.40 1018.32 1018.12 1017.88 1017.96 1018.20 1018.32 1018.44 1018.64 1018.40 1018.48 1018.60 1018.72 1018.84 1018.88 1019.04 1019.28 1019.64 1019.76 1019.48 1019.56 1019.76 1019.72 1019.60 1019.52 1019.52 1019.52 1019.52 1019.52 1019.52 1019.56 1019.60 1019.64 1019.60 1019.60 1019.56 1019.52
1017.68 1017.68 1017.72 1017.68 1017.64 1017.68 1017.64 1017.60 1017.56 1017.68 1017.80 1017.84 1017.92 1018.04 1018.20 1018.40 1018.60 1018.76 1018.80 1018.84 1018.84 1018.92 1019.04 1018.96 1018.88 1019.00 1018.88 1018.56 1018.52 1018.56 1018.28 1018.16 1018.20 1018.44 1018.52 1018.72 1018.56 1018.36 1018.44 1018.44 1018.44 1018.12 1018.12 1018.40 1018.64 1018.56 1018.36 1018.44 1018.64 1018.72 1018.80 1018.76 1018.84 1019.16 1019.20 1019.24 1019.36 1019.44 1019.60 1019.76 1019.72 1019.60 1019.56 1019.56 1019.56 1019.52 1019.56 1019.60 1019.64 1019.64 1019.64 1019.60 1019.56 1019.56
1017.68 1017.64 1017.64 1017.80 1017.88 1017.84 1017.88 1018.16 1018.08 1017.64 1017.56 1017.56 1017.48 1017.48 1017.64 1017.84 1018.16 1018.48 1018.64 1018.68 1018.64 1018.80 1018.84 1018.72 1018.80 1018.84 1018.72 1018.36 1018.16 1018.24 1018.16 1018.12 1018.40 1018.68 1018.84 1018.76 1018.76 1019.04 1019.24 1019.36 1018.68 1018.32 1018.44 1018.40 1018.64 1018.88 1018.48 1018.40 1018.68 1018.60 1018.60 1018.60 1018.72 1018.84 1019.00 1019.16 1019.28 1019.48 1019.60 1019.76 1019.84 1019.64 1019.60 1019.56 1019.52 1019.52 1019.52 1019.56 1019.60 1019.60 1019.64 1019.60 1019.60 1019.56
1017.60 1017.76 1017.80 1017.68 1017.60 1017.60 1017.64 1017.76 1018.00 1017.88 1017.64 1017.56 1017.48 1017.44 1017.52 1017.56 1017.52 1017.56 1018.00 1018.40 1018.60 1018.64 1018.76 1018.72 1018.52 1018.48 1018.48 1018.28 1018.24 1018.24 1018.20 1018.32 1018.28 1018.52 1018.56 1018.60 1018.76 1018.92 1019.12 1019.16 1019.24 1018.80 1018.56 1018.64 1018.80 1019.08 1018.72 1018.48 1018.60 1018.80 1018.72 1018.56 1018.60 1018.68 1018.84 1019.00 1019.32 1019.44 1019.56 1019.80 1019.92 1019.80 1019.68 1019.68 1019.60 1019.52 1019.48 1019.52 1019.56 1019.56 1019.56 1019.56 1019.52 1019.52
1018.20 1018.40 1018.32 1018.08 1017.84 1017.44 1017.20 1017.32 1017.44 1017.60 1017.68 1017.60 1017.48 1017.36 1017.32 1017.24 1017.36 1017.56 1017.60 1017.60 1017.88 1018.08 1018.44 1018.44 1018.36 1018.24 1018.32 1018.48 1018.40 1018.36 1018.32 1017.96 1018.32 1018.40 1018.40 1018.52 1018.60 1018.72 1018.92 1019.04 1019.12 1018.92 1018.60 1018.72 1018.88 1019.36 1019.20 1018.88 1018.96 1019.28 1019.24 1018.96 1018.92 1018.96 1019.04 1019.20 1019.40 1019.48 1019.68 1019.76 1019.80 1019.84 1019.76 1019.64 1019.56 1019.48 1019.44 1019.40 1019.44 1019.48 1019.48 1019.48 1019.48 1019.48
1018.32 1017.64 1017.32 1017.52 1017.68 1017.40 1017.32 1017.40 1017.56 1017.68 1017.76 1017.80 1017.84 1017.76 1017.68 1017.64 1017.56 1017.72 1017.88 1017.92 1017.88 1017.76 1018.08 1018.44 1018.76 1018.68 1018.44 1018.64 1018.64 1018.52 1018.40 1018.40 1018.68 1018.60 1018.64 1018.44 1018.64 1018.80 1018.92 1018.96 1019.04 1018.88 1018.56 1018.80 1018.84 1019.44 1019.52 1019.24 1019.36 1019.72 1019.80 1019.48 1019.48 1019.56 1019.60 1019.56 1019.60 1019.64 1019.68 1019.68 1019.68 1019.76 1019.68 1019.48 1019.32 1019.28 1019.24 1019.20 1019.20 1019.28 1019.32 1019.36 1019.40 1019.36
1017.28 1017.52 1017.64 1017.64 1017.68 1017.48 1017.40 1017.40 1017.44 1017.68 1017.88 1018.00 1018.00 1018.00 1018.00 1018.08 1018.20 1018.28 1018.52 1018.52 1018.20 1018.00 1017.96 1018.32 1018.88 1018.96 1018.76 1018.72 1018.68 1018.52 1018.28 1018.36 1018.40 1018.40 1018.36 1018.28 1018.40 1018.60 1018.72 1018.84 1018.88 1018.88 1018.68 1018.80 1018.88 1020.12 1020.00 1019.52 1019.72 1020.12 1020.04 1019.80 1019.76 1019.80 1019.92 1019.84 1019.84 1019.92 1019.88 1019.72 1019.68 1019.64 1019.56 1019.36 1019.24 1019.16 1019.04 1019.00 1019.00 1019.04 1019.12 1019.20 1019.24 1019.24
1017.20 1017.36 1017.44 1017.64 1017.72 1017.60 1017.56 1017.36 1017.36 1017.64 1017.80 1018.04 1018.20 1018.20 1018.32 1018.48 1018.72 1019.00 1018.92 1018.52 1018.20 1018.32 1018.64 1018.76 1018.84 1019.00 1018.96 1018.92 1018.72 1018.52 1018.32 1018.16 1018.16 1018.16 1018.24 1018.36 1018.60 1018.88 1019.16 1019.48 1019.28 1019.36 1019.08 1018.96 1019.12 1019.92 1020.36 1020.00 1020.08 1020.36 1020.12 1019.96 1020.04 1020.04 1020.00 1020.12 1020.12 1020.00 1019.84 1019.72 1019.68 1019.56 1019.48 1019.36 1019.24 1019.08 1018.92 1018.84 1018.88 1018.96 1019.04 1019.08 1019.12 1019.12
1016.76 1016.92 1017.24 1017.40 1017.44 1017.44 1017.48 1017.20 1017.16 1017.48 1017.64 1017.96 1018.20 1018.32 1018.44 1018.56 1018.88 1019.24 1019.28 1019.16 1018.80 1018.60 1018.60 1018.68 1018.80 1018.84 1018.84 1018.76 1018.60 1018.48 1018.28 1018.16 1018.00 1018.16 1018.52 1019.08 1019.08 1019.12 1019.56 1019.88 1019.80 1020.00 1019.56 1019.40 1019.48 1019.76 1020.44 1020.44 1020.48 1020.48 1020.40 1020.24 1020.28 1020.28 1020.28 1020.24 1020.24 1020.16 1020.00 1019.88 1019.84 1019.76 1019.64 1019.52 1019.36 1019.20 1019.04 1018.88 1018.84 1018.88 1018.92 1019.04 1019.08 1019.12
1016.64 1016.60 1016.44 1016.60 1017.04 1017.24 1017.20 1017.16 1017.24 1017.36 1017.48 1018.00 1018.20 1018.28 1018.48 1018.68 1019.16 1019.36 1019.32 1019.24 1019.20 1019.00 1018.92 1018.84 1018.88 1018.84 1018.72 1018.56 1018.52 1018.56 1018.44 1018.40 1018.36 1018.72 1019.64 1019.64 1019.24 1019.28 1019.36 1019.96 1020.16 1020.12 1019.80 1019.88 1019.64 1020.00 1020.80 1020.56 1020.48 1020.48 1020.44 1020.28 1020.40 1020.52 1020.52 1020.56 1020.48 1020.36 1020.28 1020.24 1020.16 1020.08 1019.92 1019.76 1019.60 1019.44 1019.28 1019.16 1019.08 1019.08 1019.16 1019.16 1019.12 1019.04
1016.68 1016.64 1016.68 1016.80 1016.96 1017.12 1017.32 1017.44 1017.32 1017.36 1017.44 1017.76 1018.00 1018.12 1018.32 1018.60 1018.88 1019.16 1019.04 1019.16 1019.28 1019.24 1019.16 1019.24 1019.24 1019.32 1019.24 1019.04 1018.96 1018.96 1018.88 1018.84 1018.88 1019.12 1019.48 1019.60 1019.96 1020.16 1020.00 1020.00 1020.08 1020.36 1020.44 1020.12 1019.80 1020.32 1020.88 1020.60 1020.68 1020.60 1020.52 1020.88 1020.84 1020.76 1020.92 1020.84 1020.72 1020.60 1020.48 1020.40 1020.28 1020.20 1020.04 1019.92 1019.80 1019.68 1019.56 1019.44 1019.36 1019.28 1019.28 1019.24 1019.12 1018.96
1017.08 1016.96 1016.92 1016.96 1017.00 1017.08 1017.24 1017.32 1017.36 1017.32 1017.36 1017.56 1017.72 1017.84 1018.08 1018.40 1018.92 1018.88 1018.96 1019.08 1019.28 1019.56 1019.56 1019.60 1019.60 1019.84 1019.84 1019.68 1019.52 1019.36 1019.28 1019.28 1019.32 1019.28 1019.36 1019.68 1020.04 1020.24 1020.24 1020.24 1020.48 1021.04 1021.20 1020.56 1020.20 1020.52 1020.84 1020.68 1020.76 1020.64 1020.68 1020.88 1021.40 1021.04 1021.00 1021.04 1020.96 1020.84 1020.72 1020.60 1020.48 1020.36 1020.12 1019.96 1019.88 1019.84 1019.80 1019.68 1019.56 1019.48 1019.40 1019.32 1019.16 1018.96
1017.44 1017.28 1017.12 1017.04 1017.12 1017.20 1017.28 1017.32 1017.32 1017.32 1017.36 1017.40 1017.52 1017.64 1017.76 1017.88 1018.28 1018.52 1018.84 1019.24 1019.44 1019.80 1020.04 1020.16 1020.28 1020.44 1020.48 1020.32 1020.24 1020.04 1019.76 1019.68 1019.68 1019.68 1019.60 1019.72 1019.92 1019.88 1020.04 1020.36 1020.68 1021.08 1021.12 1020.76 1020.48 1020.52 1021.08 1020.96 1021.00 1020.84 1020.88 1021.00 1021.36 1021.20 1021.12 1021.20 1021.20 1021.08 1021.00 1020.92 1020.84 1020.60 1020.40 1020.24 1020.12 1020.00 1019.88 1019.76 1019.68 1019.60 1019.52 1019.48 1019.36 1019.24
1017.00 1016.96 1016.96 1017.04 1017.08 1017.12 1017.20 1017.24 1017.28 1017.36 1017.40 1017.44 1017.48 1017.60 1017.64 1017.84 1018.20 1018.48 1018.84 1019.28 1019.64 1019.92 1020.04 1020.16 1020.40 1020.60 1020.88 1020.80 1020.60 1020.40 1020.08 1019.84 1019.80 1019.84 1019.96 1020.04 1020.04 1020.04 1020.04 1020.20 1020.68 1021.12 1021.28 1020.84 1020.56 1020.60 1020.80 1021.12 1021.12 1021.16 1021.20 1021.20 1021.28 1021.28 1021.32 1021.32 1021.32 1021.20 1021.08 1020.96 1020.92 1020.88 1020.68 1020.56 1020.32 1020.12 1020.00 1019.88 1019.76 1019.76 1019.68 1019.56 1019.44 1019.36
1016.64 1016.68 1016.84 1016.92 1017.12 1017.24 1017.28 1017.36 1017.48 1017.56 1017.60 1017.56 1017.64 1017.76 1017.84 1018.04 1018.20 1018.48 1019.00 1019.36 1019.80 1020.12 1020.28 1020.40 1020.60 1020.64 1020.68 1020.80 1020.84 1020.56 1020.24 1020.04 1019.96 1020.00 1020.16 1020.28 1020.32 1020.32 1020.36 1020.48 1020.68 1021.08 1021.28 1021.00 1020.76 1020.72 1020.72 1021.12 1021.12 1021.16 1021.28 1021.24 1021.36 1021.40 1021.60 1021.60 1021.56 1021.32 1021.04 1020.96 1020.88 1020.84 1020.72 1020.60 1020.52 1020.32 1020.16 1020.08 1019.92 1019.80 1019.60 1019.48 1019.44 1019.40
1016.60 1016.76 1016.92 1017.04 1017.12 1017.08 1017.20 1017.36 1017.48 1017.52 1017.56 1017.68 1017.84 1017.84 1018.04 1018.24 1018.40 1018.72 1019.12 1019.44 1019.76 1020.12 1020.32 1020.44 1020.44 1020.52 1020.68 1020.84 1020.76 1020.60 1020.40 1020.36 1020.32 1020.32 1020.40 1020.56 1020.68 1020.76 1020.80 1020.80 1020.92 1021.12 1021.12 1021.16 1021.20 1021.12 1021.04 1021.12 1021.24 1021.28 1021.20 1021.24 1021.40 1021.52 1021.76 1021.84 1021.84 1021.76 1021.56 1021.16 1021.00 1020.92 1020.92 1020.88 1020.80 1020.60 1020.36 1020.20 1020.04 1019.92 1019.80 1019.64 1019.56 1019.48
1016.84 1017.04 1017.16 1017.16 1017.16 1017.20 1017.32 1017.44 1017.64 1017.76 1017.84 1017.88 1017.88 1017.96 1018.00 1018.16 1018.60 1018.96 1019.28 1019.64 1019.92 1020.20 1020.32 1020.32 1020.40 1020.56 1020.72 1020.72 1020.60 1020.48 1020.44 1020.44 1020.44 1020.48 1020.64 1020.76 1020.92 1021.00 1021.04 1021.28 1021.40 1021.40 1021.32 1021.36 1021.40 1021.40 1021.40 1021.40 1021.44 1021.48 1021.48 1021.56 1021.68 1021.96 1021.96 1022.28 1022.20 1022.00 1021.76 1021.56 1021.32 1021.16 1021.08 1021.08 1021.04 1020.92 1020.72 1020.52 1020.40 1020.24 1020.20 1020.16 1019.96 1019.72
1017.36 1017.56 1017.64 1017.60 1017.48 1017.40 1017.48 1017.56 1017.72 1017.88 1018.04 1018.08 1018.08 1018.08 1018.16 1018.40 1018.76 1019.08 1019.40 1019.68 1019.84 1020.08 1020.16 1020.28 1020.52 1020.64 1020.64 1020.72 1020.64 1020.60 1020.60 1020.72 1020.88 1020.88 1021.04 1021.16 1021.36 1021.36 1021.36 1021.48 1021.72 1021.72 1021.68 1021.64 1021.64 1021.68 1021.64 1021.68 1021.76 1021.80 1021.96 1022.12 1022.16 1022.40 1022.48 1022.36 1022.40 1022.28 1022.04 1021.88 1021.76 1021.28 1021.32 1021.32 1021.20 1021.04 1020.96 1020.80 1020.56 1020.40 1020.20 1020.12 1020.04 1019.88
1017.36 1017.48 1017.56 1017.60 1017.60 1017.60 1017.64 1017.64 1017.72 1017.92 1018.08 1018.24 1018.36 1018.44 1018.52 1018.76 1019.04 1019.28 1019.44 1019.64 1019.84 1020.00 1020.20 1020.40 1020.60 1020.68 1020.68 1020.64 1020.68 1020.88 1020.96 1021.12 1021.16 1021.12 1021.28 1021.40 1021.60 1021.60 1021.68 1021.76 1022.12 1022.20 1022.20 1022.08 1022.00 1022.00 1022.00 1022.00 1022.00 1021.96 1022.16 1022.36 1022.40 1022.52 1022.60 1022.48 1022.56 1022.48 1022.28 1022.12 1022.00 1022.24 1021.84 1021.52 1021.32 1021.20 1021.12 1020.88 1020.56 1020.32 1020.16 1020.00 1019.96 1019.92
1017.44 1017.56 1017.72 1017.72 1017.72 1017.72 1017.80 1017.92 1018.04 1018.24 1018.40 1018.52 1018.64 1018.76 1018.88 1019.04 1019.20 1019.32 1019.40 1019.56 1019.76 1019.96 1020.12 1020.36 1020.56 1020.76 1020.84 1021.04 1021.12 1021.12 1021.24 1021.44 1021.52 1021.40 1021.48 1021.64 1021.76 1021.72 1021.72 1022.00 1022.48 1022.52 1022.56 1022.52 1022.48 1022.44 1022.32 1022.36 1022.40 1022.36 1022.36 1022.44 1022.56 1022.52 1022.44 1022.40 1022.48 1022.48 1022.40 1022.20 1022.08 1021.92 1021.76 1021.64 1021.48 1021.36 1021.28 1021.04 1020.72 1020.52 1020.40 1020.24 1020.16 1020.04
1017.60 1017.68 1017.80 1017.96 1018.04 1018.08 1018.20 1018.32 1018.52 1018.64 1018.76 1018.92 1018.92 1019.00 1019.08 1019.16 1019.28 1019.44 1019.60 1019.92 1020.12 1020.24 1020.32 1020.56 1020.76 1020.96 1021.04 1021.24 1021.24 1021.36 1021.52 1021.72 1021.80 1021.80 1021.88 1021.96 1022.04 1022.20 1022.12 1022.40 1022.72 1022.84 1022.92 1022.96 1022.92 1022.84 1022.76 1022.72 1022.60 1022.56 1022.56 1022.60 1022.64 1022.60 1022.48 1022.52 1022.52 1022.52 1022.52 1022.44 1022.28 1022.08 1021.96 1021.80 1021.68 1021.64 1021.44 1021.20 1021.08 1020.76 1020.64 1020.44 1020.28 1020.20
1017.80 1017.96 1018.12 1018.20 1018.32 1018.40 1018.48 1018.64 1018.80 1018.88 1018.92 1019.04 1019.12 1019.20 1019.24 1019.32 1019.44 1019.60 1019.80 1020.00 1020.24 1020.32 1020.48 1020.64 1020.84 1021.08 1021.20 1021.48 1021.56 1021.64 1021.88 1022.08 1022.08 1022.12 1022.08 1022.24 1022.20 1022.36 1022.52 1022.72 1023.00 1023.04 1023.16 1023.28 1023.28 1023.24 1023.12 1023.00 1022.84 1022.76 1022.68 1022.68 1022.72 1022.72 1022.72 1022.72 1022.80 1022.72 1022.64 1022.56 1022.48 1022.36 1022.16 1022.00 1021.80 1021.72 1021.64 1021.52 1021.40 1021.04 1020.68 1020.48 1020.32 1020.16
1018.00 1018.12 1018.24 1018.40 1018.40 1018.48 1018.52 1018.72 1018.84 1018.88 1018.96 1019.08 1019.20 1019.32 1019.36 1019.44 1019.56 1019.76 1019.96 1020.16 1020.24 1020.40 1020.68 1020.88 1021.00 1021.16 1021.28 1021.56 1021.68 1021.84 1022.04 1022.20 1022.36 1022.36 1022.36 1022.36 1022.44 1022.52 1022.68 1022.92 1023.20 1023.32 1023.36 1023.40 1023.48 1023.44 1023.36 1023.32 1023.16 1023.04 1023.04 1022.92 1022.80 1022.72 1022.76 1022.84 1022.88 1022.88 1022.72 1022.64 1022.64 1022.56 1022.40 1022.12 1021.96 1021.76 1021.64 1021.40 1021.28 1021.24 1020.80 1020.52 1020.36 1020.16
1018.08 1018.12 1018.28 1018.44 1018.44 1018.44 1018.56 1018.64 1018.68 1018.76 1018.88 1019.00 1019.08 1019.24 1019.44 1019.68 1019.76 1019.84 1020.08 1020.24 1020.28 1020.52 1020.72 1021.00 1021.20 1021.36 1021.52 1021.72 1021.88 1022.08 1022.28 1022.44 1022.56 1022.60 1022.64 1022.64 1022.68 1022.84 1022.88 1023.12 1023.32 1023.48 1023.56 1023.60 1023.64 1023.52 1023.44 1023.40 1023.28 1023.20 1023.16 1023.08 1023.00 1023.04 1022.96 1022.84 1022.88 1022.96 1022.92 1022.84 1022.60 1022.52 1022.32 1022.16 1022.00 1021.72 1021.48 1021.40 1021.28 1021.20 1021.00 1020.80 1020.52 1020.24
1018.20 1018.24 1018.28 1018.36 1018.40 1018.36 1018.44 1018.48 1018.52 1018.64 1018.72 1018.88 1019.04 1019.12 1019.32 1019.60 1019.88 1020.08 1020.24 1020.32 1020.44 1020.64 1020.84 1021.00 1021.32 1021.52 1021.76 1021.92 1022.12 1022.28 1022.40 1022.48 1022.64 1022.72 1022.80 1022.92 1022.96 1023.00 1023.12 1023.36 1023.52 1023.72 1023.84 1023.92 1023.84 1023.76 1023.60 1023.52 1023.44 1023.36 1023.28 1023.16 1023.08 1023.20 1023.16 1023.00 1022.88 1022.88 1022.92 1022.92 1022.68 1022.40 1022.36 1022.16 1021.96 1021.72 1021.48 1021.44 1021.28 1021.08 1021.08 1020.92 1020.56 1020.28
1018.20 1018.24 1018.32 1018.32 1018.32 1018.32 1018.32 1018.40 1018.48 1018.68 1018.88 1019.08 1019.24 1019.40 1019.60 1019.84 1020.08 1020.24 1020.28 1020.36 1020.56 1020.80 1020.96 1021.12 1021.40 1021.68 1021.96 1022.20 1022.36 1022.60 1022.68 1022.76 1022.80 1022.88 1023.00 1023.04 1023.16 1023.36 1023.44 1023.64 1023.80 1023.96 1024.08 1024.04 1023.96 1023.88 1023.72 1023.60 1023.56 1023.60 1023.52 1023.56 1023.48 1023.32 1023.24 1023.00 1022.92 1022.72 1022.84 1023.00 1022.84 1022.64 1022.32 1022.24 1021.96 1021.80 1021.60 1021.32 1021.24 1021.12 1020.96 1020.76 1020.52 1020.32
1018.20 1018.20 1018.24 1018.32 1018.36 1018.40 1018.44 1018.56 1018.64 1018.76 1018.92 1019.12 1019.32 1019.48 1019.80 1020.08 1020.28 1020.40 1020.48 1020.64 1020.76 1020.96 1021.16 1021.40 1021.68 1021.96 1022.20 1022.40 1022.48 1022.64 1022.80 1022.88 1022.96 1023.00 1023.08 1023.16 1023.24 1023.36 1023.48 1023.56 1023.76 1023.92 1023.88 1023.96 1024.00 1023.92 1023.80 1023.72 1023.76 1023.84 1023.84 1023.88 1023.88 1023.84 1023.68 1023.56 1023.24 1022.92 1022.68 1022.84 1022.84 1022.68 1022.44 1022.36 1022.16 1021.88 1021.64 1021.36 1021.20 1021.04 1020.84 1020.64 1020.48 1020.24
1018.40 1018.40 1018.48 1018.44 1018.48 1018.56 1018.60 1018.64 1018.72 1018.84 1019.00 1019.12 1019.36 1019.56 1019.80 1020.12 1020.32 1020.52 1020.72 1020.88 1021.04 1021.16 1021.32 1021.60 1021.92 1022.12 1022.32 1022.44 1022.68 1022.84 1022.92 1022.96 1023.00 1023.04 1023.08 1023.12 1023.20 1023.24 1023.32 1023.48 1023.60 1023.84 1023.88 1023.92 1023.92 1024.00 1023.92 1023.96 1024.00 1024.04 1024.00 1023.96 1023.88 1023.72 1023.60 1023.48 1023.16 1022.84 1022.60 1022.48 1022.64 1022.72 1022.64 1022.40 1022.24 1022.04 1021.72 1021.48 1021.24 1021.00 1020.72 1020.48 1020.28 1020.12
1018.28 1018.40 1018.64 1018.72 1018.72 1018.76 1018.76 1018.80 1018.88 1018.96 1019.16 1019.36 1019.56 1019.80 1019.96 1020.16 1020.32 1020.56 1020.68 1020.84 1021.00 1021.20 1021.48 1021.76 1021.92 1022.00 1022.32 1022.64 1022.76 1022.72 1022.96 1023.20 1023.16 1023.08 1023.08 1023.12 1023.24 1023.28 1023.36 1023.56 1023.72 1023.80 1023.80 1024.04 1024.12 1024.08 1024.08 1024.24 1024.20 1024.12 1024.04 1023.92 1023.72 1023.48 1023.28 1023.12 1023.12 1022.96 1022.84 1022.64 1022.40 1022.40 1022.40 1022.40 1022.32 1022.12 1021.88 1021.56 1021.28 1021.12 1020.88 1020.68 1020.56 1020.28
1018.32 1018.52 1018.76 1018.72 1018.76 1018.92 1018.96 1019.04 1019.12 1019.20 1019.40 1019.52 1019.64 1019.92 1020.16 1020.32 1020.44 1020.56 1020.76 1020.96 1021.12 1021.32 1021.52 1021.80 1022.04 1022.28 1022.60 1022.84 1022.92 1022.96 1023.00 1023.08 1023.16 1023.20 1023.20 1023.16 1023.24 1023.40 1023.56 1023.60 1023.72 1023.92 1023.92 1024.08 1024.16 1024.20 1024.24 1024.28 1024.20 1024.08 1023.92 1023.76 1023.60 1023.64 1023.60 1023.36 1023.28 1023.16 1023.08 1022.80 1022.52 1022.40 1022.32 1022.24 1022.16 1022.08 1021.92 1021.72 1021.56 1021.32 1021.08 1020.76 1020.60 1020.40
1018.52 1018.60 1018.76 1018.92 1019.00 1019.08 1019.12 1019.24 1019.32 1019.40 1019.56 1019.68 1019.84 1019.92 1020.08 1020.28 1020.52 1020.72 1020.92 1021.12 1021.32 1021.48 1021.72 1022.12 1022.36 1022.56 1022.88 1023.00 1023.08 1023.04 1023.08 1023.20 1023.24 1023.28 1023.28 1023.32 1023.36 1023.52 1023.72 1023.88 1023.92 1024.04 1024.16 1024.28 1024.32 1024.32 1024.28 1024.24 1024.20 1024.08 1023.92 1023.84 1023.80 1023.80 1023.68 1023.48 1023.28 1023.16 1022.96 1022.72 1022.60 1022.48 1022.28 1022.16 1022.04 1021.96 1021.84 1021.68 1021.64 1021.60 1021.48 1021.32 1021.08 1020.92
1018.76 1018.80 1018.96 1019.12 1019.16 1019.28 1019.36 1019.44 1019.52 1019.60 1019.68 1019.80 1020.00 1020.08 1020.16 1020.40 1020.68 1020.92 1021.04 1021.28 1021.52 1021.88 1022.20 1022.44 1022.68 1022.76 1022.92 1023.12 1023.20 1023.20 1023.16 1023.24 1023.28 1023.28 1023.36 1023.52 1023.68 1023.76 1023.88 1024.12 1024.24 1024.32 1024.36 1024.36 1024.36 1024.28 1024.32 1024.20 1024.20 1024.24 1024.12 1024.00 1023.96 1023.88 1023.68 1023.52 1023.28 1023.08 1022.92 1022.88 1022.68 1022.52 1022.36 1022.16 1021.96 1021.88 1021.76 1021.60 1021.48 1021.44 1021.36 1021.28 1021.20 1021.12
1018.92 1019.00 1019.12 1019.24 1019.32 1019.36 1019.48 1019.56 1019.64 1019.76 1019.88 1020.04 1020.16 1020.32 1020.56 1020.72 1021.04 1021.36 1021.56 1021.76 1022.00 1022.24 1022.44 1022.60 1022.76 1022.92 1023.04 1023.12 1023.12 1023.24 1023.40 1023.44 1023.48 1023.64 1023.80 1023.84 1023.96 1024.08 1024.20 1024.28 1024.40 1024.48 1024.52 1024.64 1024.52 1024.44 1024.40 1024.40 1024.24 1024.20 1024.16 1024.00 1023.96 1023.96 1023.76 1023.60 1023.44 1023.16 1022.96 1022.88 1022.72 1022.52 1022.32 1022.16 1022.08 1021.92 1021.80 1021.56 1021.48 1021.48 1021.32 1021.12 1020.96 1020.76
Wind_Speed
2 2 3 3 3 2 2 2 2 2 2 3 2 3 4 4 2 2 3 3 3 2 2 1 1 0 1 1 1 2 2 3 3 3 3 2 2 4 6 7 8 9 10 9 7 7 6 6 5 4 5 5 6 6 6 7 8 8 9 10 10 10 10 9 10 10 10 10 10 11 12 12 13 14
1 2 2 2 3 1 2 3 3 3 4 3 4 3 2 4 5 4 3 5 4 3 1 3 2 1 1 1 2 2 2 2 2 2 2 3 2 4 6 7 8 8 8 8 8 7 7 6 6 6 6 6 6 6 6 7 8 9 9 10 10 10 10 9 10 10 10 11 11 11 12 12 13 13
1 2 3 2 2 1 1 1 2 2 2 3 3 3 2 3 5 5 3 2 3 2 2 2 2 2 2 2 3 1 1 1 2 1 1 1 4 4 4 7 8 7 8 8 8 7 6 6 7 7 7 6 7 7 7 7 8 9 9 10 10 10 9 9 10 10 10 10 10 10 11 11 12 12
1 1 2 2 2 2 2 3 3 3 3 3 3 3 4 3 3 4 4 5 7 2 3 3 2 4 4 3 2 0 1 1 2 3 2 2 2 1 1 6 8 8 8 8 8 7 7 6 7 7 7 7 7 7 7 8 9 9 9 10 9 9 9 9 10 10 10 10 10 10 11 11 12 12
1 2 3 4 3 3 4 4 4 3 3 3 2 2 2 3 3 4 4 5 6 3 2 2 2 1 2 2 1 1 1 2 2 2 1 1 0 0 1 2 7 8 8 8 8 7 7 7 7 7 7 7 7 7 8 8 8 9 9 9 8 8 9 9 10 10 10 10 10 10 11 11 12 11
2 3 4 4 3 3 4 2 3 3 2 3 3 3 3 4 4 4 4 4 3 6 1 2 1 2 2 2 0 2 3 3 2 2 2 1 1 1 1 2 4 6 7 7 7 7 7 6 6 6 7 7 7 7 7 7 7 8 8 8 8 8 8 9 9 10 10 10 10 10 10 11 11 11
3 3 4 5 4 2 3 3 3 2 3 2 4 4 3 4 4 4 5 3 4 5 5 1 2 1 0 2 1 1 1 1 1 2 2 2 1 1 1 1 2 4 5 6 6 6 5 6 5 2 3 5 6 7 7 7 7 7 7 8 7 8 8 8 9 9 9 10 10 10 10 10 10 11
5 5 5 6 4 2 3 4 4 3 3 3 4 4 4 4 4 3 4 4 4 2 4 3 2 1 1 1 1 2 1 1 1 1 1 1 0 1 1 1 1 3 4 4 5 6 7 7 4 2 4 5 6 6 6 6 7 7 7 7 7 7 7 7 8 8 8 9 9 9 10 10 10 10
5 5 6 6 4 3 4 5 5 3 4 4 3 4 3 2 2 2 3 5 5 5 6 4 1 1 2 2 2 2 2 1 0 1 1 2 1 1 2 1 2 4 4 7 8 7 6 7 6 5 7 8 7 4 4 4 6 6 7 7 7 7 7 7 7 7 7 7 7 8 8 8 9 8
5 4 5 5 4 4 5 6 5 4 5 3 3 4 3 2 2 3 4 5 6 7 7 7 6 2 2 2 1 1 2 2 2 2 1 1 1 1 1 1 1 1 2 2 4 5 4 5 6 7 10 9 8 8 7 5 4 4 6 6 7 6 7 7 6 6 7 7 8 8 8 8 8 8
4 5 5 5 4 5 6 6 6 5 4 3 4 4 3 2 2 2 3 5 6 6 6 5 5 5 3 3 2 1 2 1 1 2 2 0 1 0 1 0 1 1 3 5 7 4 2 5 5 7 9 8 7 5 1 1 2 2 3 5 6 6 6 5 6 6 7 7 8 8 8 9 9 10
5 5 5 5 5 6 6 6 6 4 5 2 4 3 2 2 2 3 3 4 4 5 4 4 4 3 3 2 2 1 2 2 1 1 1 1 1 0 1 1 1 1 1 3 3 4 3 3 7 7 7 7 6 3 0 0 2 1 1 3 5 5 5 5 5 5 6 6 7 7 8 8 8 9
5 5 5 5 5 6 9 11 9 7 5 3 4 3 1 2 3 4 4 4 5 5 4 5 3 3 5 4 3 3 3 3 2 1 1 1 1 2 1 3 4 2 1 2 3 2 2 1 1 2 2 3 5 6 2 3 3 1 0 1 4 5 5 4 5 5 6 6 6 7 7 7 7 7
4 5 5 5 8 10 11 11 11 10 9 9 7 6 3 4 4 5 6 5 5 5 5 5 4 5 4 3 3 4 3 1 2 2 1 1 3 2 2 3 4 5 3 1 2 2 1 1 0 1 1 2 4 3 4 4 3 1 2 2 1 4 4 4 4 5 5 5 5 6 6 6 6 6
6 5 3 2 4 6 8 10 14 11 10 9 11 12 11 7 5 4 6 6 5 5 5 4 3 5 6 4 3 4 3 1 1 3 2 1 2 3 2 2 1 4 4 2 2 4 4 1 2 1 0 2 3 3 4 3 1 1 3 2 3 2 4 4 3 4 4 4 5 5 5 5 5 5
4 1 1 3 3 3 5 7 8 9 9 8 9 10 11 11 12 10 7 6 5 4 5 4 5 4 5 4 2 3 1 2 3 2 3 1 2 1 1 0 2 3 4 1 1 2 5 4 3 5 4 1 0 1 3 4 3 4 6 4 4 4 3 4 3 3 4 4 4 4 4 3 4 4
6 7 7 6 5 3 7 6 5 4 5 6 9 10 11 11 10 4 6 8 7 4 5 5 5 5 3 4 3 3 1 1 2 0 0 1 1 0 0 1 2 4 4 1 2 3 5 4 5 7 7 7 6 5 4 5 6 7 5 3 3 5 4 2 2 3 3 3 2 3 3 2 3 4
4 7 8 6 6 3 3 4 6 5 6 5 3 2 1 2 4 7 9 10 9 10 3 3 3 6 4 4 4 5 5 3 3 3 2 1 0 1 2 4 3 3 4 2 1 3 6 5 5 8 6 6 7 7 10 10 8 6 3 3 4 1 3 3 3 4 4 4 4 3 3 3 2 3
8 4 4 4 5 4 4 4 5 6 6 4 3 2 2 5 4 7 8 6 4 3 4 4 5 5 5 5 4 4 3 1 4 2 2 1 1 4 4 3 2 3 6 5 1 4 4 4 6 6 5 5 7 7 10 13 11 8 7 9 8 7 5 5 4 4 6 6 6 6 4 3 2 3
4 5 4 2 3 3 3 4 6 6 6 3 3 1 3 5 6 7 7 4 8 8 6 6 7 7 8 7 6 6 4 2 1 1 3 4 3 3 3 4 4 6 5 7 4 4 3 4 5 5 4 4 7 6 6 9 9 9 9 9 9 10 10 10 9 8 5 4 5 4 3 3 3 3
4 3 4 5 4 3 3 3 5 4 5 1 2 2 1 4 6 5 6 9 13 14 14 13 12 10 11 12 15 15 16 12 5 3 4 5 3 1 2 3 4 5 5 6 5 2 3 4 2 4 3 4 6 6 6 6 9 10 11 11 11 11 12 12 13 13 12 9 4 1 4 5 3 3
5 6 9 7 4 3 2 2 3 2 2 4 3 1 2 4 6 5 6 5 6 10 12 14 14 13 14 15 16 17 17 17 12 10 8 6 3 3 2 4 4 3 6 6 5 3 3 2 2 1 2 4 5 7 7 7 7 8 8 10 11 11 10 12 13 13 13 13 10 7 4 3 2 1
5 3 4 2 5 4 6 6 4 3 3 3 3 2 1 4 5 5 7 6 6 6 7 8 9 10 11 9 9 11 16 16 13 9 7 7 7 4 4 3 1 5 6 7 6 4 3 3 4 1 0 3 2 3 5 6 5 6 5 5 7 11 10 10 12 12 13 12 11 8 5 4 3 1
2 2 2 4 6 7 7 6 5 3 3 2 3 4 3 5 5 6 6 7 8 7 8 8 9 8 6 7 7 6 7 8 8 8 8 6 3 4 6 7 7 5 3 5 6 4 1 2 3 4 3 2 3 2 2 6 6 6 5 5 5 8 8 9 8 11 11 10 11 10 9 8 6 2
5 4 2 1 2 5 6 5 4 2 3 4 2 4 4 4 9 8 8 12 14 9 9 8 8 7 6 6 5 4 5 5 5 6 6 5 4 4 6 7 7 6 4 5 6 4 3 2 4 3 4 3 1 2 2 3 6 5 6 5 5 6 5 6 5 5 7 8 9 9 9 9 8 5
6 5 4 3 5 6 6 5 4 2 1 3 1 3 9 16 15 9 9 9 8 8 8 8 7 5 4 3 3 3 5 5 6 6 6 5 7 7 6 7 7 6 4 5 6 3 3 4 3 2 1 1 2 3 2 3 4 5 3 3 4 4 5 5 5 5 5 5 4 7 6 8 7 6
5 4 5 5 7 6 8 8 6 5 5 6 6 11 15 14 15 13 9 9 8 8 8 8 7 5 4 4 3 3 4 5 6 7 7 7 7 7 9 9 8 7 3 4 6 4 3 3 2 2 2 1 2 2 4 4 4 5 4 4 3 5 6 5 6 5 5 5 4 8 6 6 8 6
5 5 4 4 7 9 10 11 10 9 8 8 12 15 15 14 12 9 9 8 8 8 8 7 7 6 4 2 3 4 4 5 6 7 8 8 8 8 8 8 8 7 6 6 5 5 3 2 2 2 3 2 3 3 3 3 3 4 5 5 2 4 7 7 7 7 6 6 5 5 5 5 5 5
4 7 9 9 8 10 12 12 11 11 12 14 14 15 15 13 7 8 8 8 7 8 7 7 6 4 3 3 3 3 5 6 6 6 7 7 7 8 9 9 8 7 6 6 6 5 5 4 4 3 5 5 5 5 4 3 3 5 6 6 4 4 8 7 6 6 6 6 5 5 5 5 5 5
11 8 7 7 8 8 7 7 7 7 8 12 13 13 12 7 7 7 7 7 7 7 6 6 5 4 4 3 3 4 4 5 5 4 5 5 5 4 5 8 8 7 8 8 8 7 6 6 5 6 6 6 5 5 3 3 4 4 6 6 6 2 6 7 6 6 6 6 5 5 4 3 4 5
7 6 4 4 7 8 10 11 10 10 10 8 7 6 6 6 6 5 5 6 7 6 6 5 4 3 3 3 4 5 5 5 5 5 5 5 4 5 5 7 6 7 7 9 8 8 7 7 5 5 5 4 4 4 3 3 4 4 5 5 5 5 5 6 6 6 6 6 5 4 5 5 5 5
7 7 7 6 5 6 6 6 5 6 5 6 6 6 5 5 5 7 9 8 5 5 5 5 4 4 4 4 4 5 5 5 5 4 5 5 5 4 4 6 6 5 6 7 7 8 8 6 5 5 6 5 4 3 2 5 5 5 5 5 5 4 5 6 6 6 7 5 5 5 5 5 6 6
5 5 6 5 5 4 5 5 5 5 5 5 5 6 5 4 5 4 4 5 4 5 5 5 5 5 4 4 4 5 6 5 5 4 5 5 6 5 6 7 5 5 6 6 6 6 6 5 5 5 5 6 6 5 4 5 5 4 4 4 4 5 5 6 6 6 7 5 5 4 4 5 5 5
5 6 5 4 5 5 4 5 5 5 4 5 5 4 5 4 4 4 4 4 4 4 4 4 5 5 5 5 4 5 6 5 5 4 4 4 4 5 5 6 6 5 5 5 5 5 5 5 4 5 5 4 4 6 5 4 4 4 4 4 4 5 5 6 6 6 6 4 4 4 4 5 5 5
5 6 7 5 4 4 4 5 5 4 4 4 4 4 3 3 4 4 4 4 4 5 5 4 4 4 4 5 4 5 5 5 4 4 4 4 4 5 5 6 6 5 4 4 4 4 4 4 3 4 4 3 3 4 5 5 4 5 4 4 4 5 5 6 6 6 5 5 3 4 5 5 6 7
4 5 5 4 4 4 5 4 4 4 4 4 4 4 4 3 3 4 5 4 4 5 5 5 4 4 4 4 4 5 5 5 4 4 4 4 5 5 5 6 5 5 4 4 4 3 3 4 4 5 5 4 3 4 4 5 4 4 6 6 6 5 5 5 5 5 5 6 5 4 5 7 7 7
5 4 5 5 4 4 4 4 4 4 4 4 4 3 4 4 3 4 4 5 5 5 5 5 5 4 5 5 5 4 4 4 4 3 4 3 4 4 5 5 5 4 4 3 3 3 3 4 4 5 6 6 7 6 5 3 4 1 5 5 5 6 6 6 5 6 6 5 5 6 6 6 7 7
4 4 4 4 4 4 3 3 3 3 3 3 3 3 3 4 4 4 4 5 5 5 5 5 5 5 5 4 4 4 3 3 3 3 3 3 4 4 4 4 4 3 3 3 3 3 3 4 5 5 5 6 6 6 6 5 4 4 5 3 5 6 6 6 7 7 7 6 6 6 6 6 8 8
3 3 3 3 2 2 3 2 2 3 3 3 3 4 4 4 4 4 4 4 4 5 4 5 4 4 4 4 3 4 4 3 4 4 4 3 4 4 4 4 4 3 3 3 3 3 3 4 4 4 4 4 5 5 5 5 5 6 6 2 2 6 6 6 6 6 6 7 7 6 6 5 6 9
3 3 2 2 1 1 1 2 2 2 3 3 3 4 5 5 5 5 5 5 5 4 4 5 5 5 4 4 4 3 3 4 4 4 4 4 4 4 4 3 3 3 3 3 3 3 3 4 4 4 4 3 2 3 3 3 4 4 5 4 5 4 5 6 6 7 7 7 8 9 9 8 9 8
3 4 3 2 3 2 2 2 2 2 3 3 4 4 4 5 5 5 5 5 5 5 4 4 4 4 4 4 3 3 4 3 3 4 4 4 4 3 4 4 3 2 3 3 3 3 4 3 5 6 3 2 2 3 2 3 5 6 6 7 10 10 9 7 6 6 8 9 8 8 8 9 8 8
3 3 2 2 3 3 3 3 3 3 4 4 5 5 5 5 5 6 6 6 5 4 4 4 4 4 4 3 3 3 4 3 3 3 3 3 3 3 3 2 2 2 2 3 3 3 2 2 3 3 3 3 3 4 5 5 6 6 5 5 6 7 9 11 11 9 8 7 7 8 7 7 7 7
3 3 3 2 3 3 3 3 3 4 4 4 5 5 5 5 5 5 4 4 4 4 4 4 4 4 4 3 3 3 3 3 2 3 2 2 2 2 2 2 3 3 3 2 1 2 2 2 3 4 4 3 4 4 5 6 6 6 6 6 6 6 6 7 7 8 9 8 6 6 7 8 9 9
2 3 3 2 3 3 3 4 4 4 4 4 4 4 4 5 4 3 3 3 4 4 4 4 4 4 4 3 3 2 2 2 2 2 2 2 2 2 3 3 3 3 2 2 2 2 2 3 3 3 4 4 4 4 6 6 6 6 6 7 7 6 6 6 5 5 6 8 9 11 11 10 9 10
2 3 3 3 3 3 3 3 4 4 4 4 4 4 4 4 4 4 4 4 5 5 5 4 4 4 4 3 3 4 2 2 2 2 2 3 3 3 4 4 3 2 1 1 2 3 3 3 3 3 3 4 4 4 5 5 6 6 7 6 7 7 6 7 9 7 7 6 7 9 11 12 13 13
Wind_Direction
235 244 230 228 255 229 198 205 212 203 200 202 188 180 192 169 225 299 296 280 281 272 214 253 328 206 218 279 257 258 257 280 292 305 283 257 236 212 230 218 192 176 167 167 163 161 161 159 142 125 105 88 79 72 68 63 61 60 65 66 64 63 61 59 57 51 49 49 47 50 51 49 47 47
222 234 254 250 261 200 183 204 200 187 190 182 190 199 197 165 202 205 259 282 223 265 243 231 267 269 271 282 279 231 271 251 266 277 277 281 269 216 213 203 184 175 167 157 156 158 158 151 132 116 98 90 84 79 73 68 63 63 64 65 64 63 60 58 56 54 54 54 53 51 56 58 56 52
227 258 285 320 306 348 241 216 202 194 192 196 180 202 179 198 196 190 186 271 279 185 276 262 260 288 313 311 299 284 290 346 356 345 333 288 294 240 196 182 173 170 164 158 155 152 150 144 127 117 111 105 98 89 82 75 70 66 65 65 62 58 54 56 56 56 55 53 54 55 55 56 56 55
355 330 276 254 230 204 188 199 200 202 205 185 192 192 189 195 187 161 181 218 263 203 234 269 293 269 280 297 280 285 314 353 351 347 349 345 342 158 153 164 163 164 167 160 153 153 152 146 134 129 123 115 106 99 91 82 76 70 67 63 59 55 54 53 55 56 57 56 55 54 52 51 51 52
203 200 215 226 225 201 206 210 206 211 203 194 207 197 192 202 178 178 181 219 262 273 212 246 275 300 300 288 258 307 336 343 354 338 19 30 343 94 155 158 166 167 167 161 157 156 156 151 134 129 129 123 116 107 97 85 78 73 66 62 57 50 53 54 54 54 56 58 59 57 53 50 48 52
235 217 231 241 231 204 227 224 224 227 216 201 218 211 206 212 209 199 198 221 235 275 241 282 246 270 169 261 98 354 349 350 333 346 358 84 145 170 169 159 172 169 165 162 158 157 158 147 130 132 137 132 124 112 99 90 84 77 71 65 63 52 49 51 52 51 50 51 54 57 56 59 56 53
211 224 233 242 235 204 230 233 242 224 227 206 223 233 217 227 224 205 212 200 237 261 287 225 273 217 215 230 246 267 270 276 282 319 351 345 154 133 163 158 152 156 170 161 159 150 124 96 81 113 130 133 118 106 100 94 89 86 80 74 60 55 49 45 48 50 47 47 48 51 53 54 56 57
205 214 226 242 239 231 248 262 252 238 221 221 228 232 226 224 229 207 206 222 240 261 280 281 271 251 299 252 208 255 224 273 359 1 328 352 34 102 129 141 157 142 153 151 119 96 88 88 87 31 46 59 77 99 106 107 101 93 85 78 69 59 52 45 45 45 42 42 42 45 49 52 51 49
215 212 222 239 215 211 239 254 249 223 229 220 221 243 237 230 230 220 215 228 230 246 257 271 247 274 282 276 296 328 329 317 313 22 37 24 53 72 57 62 66 91 109 88 95 117 120 118 113 86 65 62 53 35 49 81 91 94 89 82 74 66 58 56 54 40 34 28 29 35 37 48 50 49
228 223 228 235 221 217 227 251 257 245 251 243 241 247 247 224 209 225 239 235 233 235 251 260 281 272 284 277 238 338 333 329 333 337 25 99 94 143 156 110 128 153 119 142 123 119 140 113 101 95 92 80 59 36 14 26 37 77 89 86 81 72 64 60 57 51 46 41 35 31 26 33 40 46
228 230 226 220 213 222 225 243 255 266 270 266 265 253 270 250 235 234 235 239 231 233 245 254 255 280 292 270 278 61 18 348 308 306 340 72 58 70 282 244 123 142 109 92 96 105 145 145 138 111 104 109 115 116 109 226 88 51 79 97 87 77 65 57 59 52 47 44 41 38 34 29 27 34
225 227 234 236 221 219 224 225 242 230 253 243 267 265 263 257 254 260 263 249 240 238 238 245 260 261 292 280 247 266 294 295 259 210 241 287 322 29 351 312 302 88 114 126 121 119 139 128 116 121 122 133 143 127 41 212 85 43 314 114 96 85 70 59 49 49 48 43 39 36 34 34 32 29
229 231 237 237 233 229 237 238 239 240 230 236 263 270 214 237 236 249 250 244 241 243 244 260 251 261 266 261 272 270 246 227 242 139 159 273 320 328 344 58 39 46 123 108 109 131 241 161 162 136 158 166 147 106 181 299 352 260 182 329 94 84 75 54 43 44 43 37 36 32 29 28 33 30
231 234 231 243 245 249 254 255 257 257 250 242 243 254 203 218 226 236 246 247 244 244 247 254 263 273 264 258 243 248 243 221 153 167 115 11 5 344 42 102 50 15 24 55 89 92 240 268 131 145 179 168 166 157 181 195 188 205 100 341 95 94 78 61 46 45 40 40 37 36 32 26 26 30
227 233 240 294 297 290 307 320 299 276 272 272 272 267 265 240 209 217 246 251 239 241 252 256 258 265 278 269 247 255 245 174 55 32 19 23 54 52 9 337 119 59 353 20 60 60 8 328 353 29 263 170 181 172 177 190 152 3 91 48 313 93 86 66 55 41 39 32 33 35 38 35 26 24
237 266 193 208 208 213 205 216 251 275 282 283 268 262 267 270 267 262 254 259 254 240 254 257 253 262 267 283 293 260 200 107 107 180 184 104 114 122 79 260 328 27 358 340 85 78 7 354 42 42 30 20 168 174 138 170 76 24 50 47 6 355 36 43 30 28 17 15 8 11 23 21 17 12
15 19 352 327 288 274 288 291 288 296 291 286 286 277 272 271 265 262 279 263 263 288 270 270 268 268 298 308 315 331 11 118 95 131 124 159 165 65 339 38 43 333 346 254 104 58 15 1 51 57 32 41 39 48 90 95 71 48 51 56 57 22 12 336 343 344 340 337 337 329 327 340 352 353
217 214 235 270 297 304 314 312 309 316 307 305 315 352 2 321 335 26 15 4 337 309 315 325 325 24 14 10 20 22 5 19 311 286 307 310 138 156 108 110 98 20 355 340 105 70 18 13 52 59 45 48 55 53 53 60 63 76 60 49 53 53 315 319 316 295 278 271 264 255 267 287 313 326
199 208 246 253 272 306 321 315 325 318 316 316 312 320 22 30 26 46 41 30 32 28 36 27 53 60 45 44 24 357 345 297 283 309 309 302 118 104 107 111 86 55 23 5 349 74 12 1 68 60 60 64 68 65 61 61 57 48 48 48 42 28 18 8 345 300 272 257 249 239 225 230 264 289
189 166 191 220 236 265 298 317 343 330 312 296 272 219 86 81 59 56 49 79 79 76 77 86 85 79 69 55 57 41 1 307 287 200 78 45 70 109 91 64 32 36 19 18 43 94 46 354 64 73 58 62 64 53 57 56 55 55 52 53 53 48 40 30 20 5 338 290 256 245 219 197 213 260
196 179 158 187 218 220 233 12 43 360 321 268 99 112 122 70 82 67 66 73 91 97 93 89 93 101 95 75 60 52 46 40 42 88 52 28 349 142 92 68 51 37 17 24 16 78 67 18 12 84 41 52 57 43 37 31 36 39 46 48 47 46 40 35 31 29 24 18 0 241 165 169 192 252
188 209 216 218 194 185 87 75 127 128 131 129 151 176 19 87 107 111 123 117 92 90 80 74 72 67 61 59 58 52 48 45 43 51 39 343 330 55 113 122 101 72 38 20 354 74 28 351 360 74 118 59 48 43 39 31 26 25 36 37 37 32 35 35 33 33 32 34 38 54 105 137 203 222
152 148 58 102 164 162 155 158 133 162 164 166 196 191 123 112 127 136 139 120 106 82 71 53 51 46 46 50 57 59 55 52 52 55 53 26 20 22 30 79 90 45 22 2 346 94 4 28 30 334 244 80 67 66 43 30 21 28 21 23 29 22 28 33 37 32 33 36 39 44 45 25 315 57
8 71 100 77 97 129 134 134 144 166 211 197 190 188 177 132 131 145 125 99 94 85 77 78 69 63 42 39 43 44 54 57 61 64 60 55 74 88 85 71 76 83 15 343 350 80 61 5 43 18 30 73 44 12 40 38 21 23 15 14 28 7 12 25 29 30 29 32 29 31 30 26 9 31
203 185 134 90 92 98 108 113 117 150 227 229 205 193 182 141 139 141 115 103 95 89 82 75 69 62 47 46 37 37 52 63 61 61 61 66 55 72 86 87 78 78 40 357 357 85 76 0 46 20 42 63 47 10 56 56 24 23 21 22 22 11 6 11 9 14 13 18 27 18 19 15 22 17
191 154 153 158 146 137 126 113 94 94 331 245 208 120 115 121 132 125 109 109 107 102 100 97 92 87 76 69 59 52 61 64 67 62 59 48 62 57 64 87 97 87 38 349 26 76 102 53 26 52 48 68 75 36 25 44 24 8 11 32 40 25 17 7 1 9 7 2 5 7 350 3 22 28
140 140 139 135 110 90 82 75 71 66 87 87 120 120 118 121 118 114 115 118 111 109 109 111 112 117 112 97 101 84 81 78 81 81 75 66 70 78 81 79 78 85 72 29 27 33 63 86 41 60 75 97 88 77 56 34 12 346 11 14 26 33 22 15 12 5 5 360 359 350 350 10 9 9
130 126 121 117 114 106 95 90 86 85 92 112 120 114 113 112 114 115 118 117 119 119 122 121 119 112 126 141 112 94 83 79 81 86 82 77 71 69 62 59 66 68 60 45 32 30 39 87 68 42 48 71 77 57 86 49 20 6 357 352 17 30 24 16 8 1 360 358 356 360 3 1 358 350
98 100 114 127 123 108 107 106 98 92 99 110 116 117 118 115 105 113 115 119 119 119 121 122 119 122 132 128 112 100 94 93 88 83 86 87 84 82 78 72 60 48 46 43 36 30 34 42 54 59 56 45 75 63 61 52 23 16 8 360 5 16 20 10 12 4 356 353 352 353 4 347 342 345
96 108 120 119 114 113 112 105 101 98 103 106 109 109 108 105 112 118 122 128 129 133 136 128 126 128 120 104 104 93 81 74 71 81 79 72 51 49 71 70 53 43 42 42 44 32 33 39 50 71 73 66 67 71 46 39 39 17 14 20 358 345 17 0 3 7 360 351 346 346 350 2 4 7
118 119 108 93 85 91 92 91 89 92 98 96 96 94 97 101 108 115 125 133 129 130 123 120 113 105 97 91 70 57 65 68 57 67 83 76 70 71 69 75 66 53 42 42 41 43 42 43 45 52 76 77 75 72 60 55 54 26 21 14 19 27 345 349 359 10 1 349 342 348 356 1 10 16
121 116 114 113 102 91 81 81 78 76 78 87 92 93 95 104 113 115 114 108 100 101 109 114 110 100 92 81 77 74 69 67 61 61 71 74 69 59 80 75 68 64 56 45 43 37 46 49 55 55 65 63 65 60 73 55 48 33 28 20 17 18 8 5 358 2 356 343 353 356 345 357 2 5
107 107 105 101 94 88 88 86 87 88 84 74 79 88 87 91 94 92 100 111 109 117 123 120 114 106 93 86 85 87 76 65 68 61 77 66 80 71 70 83 82 71 64 51 41 36 33 31 42 56 67 63 58 53 48 48 40 31 27 17 10 12 10 359 357 354 344 353 353 340 344 351 2 358
110 112 116 101 101 99 96 101 105 107 103 100 92 87 98 102 103 102 96 103 113 113 112 112 114 112 105 97 91 86 90 81 70 54 66 76 78 88 85 89 83 78 76 68 55 38 26 22 32 35 42 56 64 57 46 45 37 23 16 12 10 4 1 354 351 351 351 353 337 335 353 359 353 350
107 122 123 117 101 102 109 111 117 121 115 110 108 104 106 109 110 107 104 111 116 115 115 105 103 107 105 105 101 98 91 90 82 76 70 82 77 87 93 91 85 72 68 65 57 43 38 37 36 60 53 40 45 67 76 54 26 24 9 16 10 358 351 349 347 343 341 340 357 346 344 353 354 351
102 114 119 122 124 122 120 127 126 129 130 134 130 127 115 107 107 116 117 122 115 114 109 107 103 101 100 101 96 95 99 99 97 95 93 92 94 91 85 83 82 74 66 62 57 46 48 49 36 35 26 14 19 18 41 40 48 36 13 3 359 354 349 345 339 332 347 353 347 339 343 342 344 345
109 122 128 134 144 144 134 138 139 139 139 140 136 135 132 133 123 107 108 119 105 99 110 112 106 103 100 99 98 99 108 112 107 99 94 86 82 88 91 87 82 81 77 64 58 53 45 49 34 30 18 11 8 3 1 13 346 347 29 3 352 351 352 341 338 351 350 345 340 346 336 321 328 339
119 127 129 141 152 156 152 146 140 132 122 121 121 105 88 94 103 109 115 110 109 112 117 114 110 105 103 109 114 112 103 99 107 106 103 102 102 94 95 99 94 85 87 67 55 50 39 45 35 25 19 10 356 351 350 353 350 17 65 18 353 346 350 350 351 350 342 341 343 339 326 325 331 334
95 111 120 137 150 153 157 150 147 142 134 127 131 123 116 112 110 111 106 102 104 107 104 102 103 108 115 118 118 127 129 124 109 102 99 97 104 113 115 115 114 117 104 89 66 56 41 43 33 24 17 12 6 351 331 333 343 334 338 357 339 350 359 350 346 341 339 341 339 325 315 312 275 270
92 82 83 86 87 99 111 134 140 135 142 133 123 128 131 131 124 118 115 118 116 111 110 111 119 123 120 121 120 113 105 107 111 113 113 114 115 116 116 116 115 117 107 94 77 58 46 35 23 15 5 349 331 320 302 285 277 296 332 10 32 14 349 345 347 342 340 341 335 339 340 341 340 344
101 86 80 94 98 96 108 105 108 115 111 113 115 114 113 120 123 125 132 138 133 127 122 124 128 126 123 122 121 117 110 109 113 115 115 114 115 118 120 122 115 117 100 91 76 56 39 9 350 351 340 304 288 269 290 332 353 351 349 344 341 348 350 352 345 344 343 342 347 347 345 345 344 337
81 91 84 78 89 92 97 105 109 109 110 116 118 118 117 118 117 129 131 126 115 112 117 125 121 110 107 103 104 104 115 124 119 112 119 124 119 110 111 112 115 119 99 89 64 48 23 358 347 346 349 350 351 357 352 345 344 344 336 329 337 343 344 342 342 343 344 348 353 352 348 343 346 338
82 88 91 89 89 93 96 100 101 106 113 115 118 123 124 122 122 124 122 120 114 117 111 96 91 92 95 96 99 111 118 117 122 130 132 127 123 124 116 96 93 94 86 82 33 347 345 347 1 356 348 349 353 337 339 342 339 336 335 338 341 341 342 346 343 340 339 338 348 352 352 346 344 340
107 107 101 94 97 97 94 97 100 100 109 113 115 119 122 125 124 114 105 104 105 95 91 95 98 102 102 102 105 97 93 126 147 145 128 89 83 100 109 106 103 99 92 66 28 23 11 355 359 351 341 347 344 337 343 339 337 337 335 336 335 340 348 351 350 348 343 344 354 349 343 339 335 327
93 91 95 95 98 99 97 98 97 104 104 107 108 107 101 91 89 89 85 90 95 101 102 105 104 104 109 114 118 121 128 106 93 72 79 96 101 102 103 108 110 108 75 29 2 356 357 344 338 335 330 340 341 335 332 334 332 330 332 335 342 343 342 346 347 349 351 347 6 345 327 326 328 328